This is the latest recevied weather packets stored in our database for station/object KE8WAY. If no packets are shown the sender has not sent any weather packets the latest 10 day(s).
| Time | Temp. | Humidity | Pressure | Rain* | Wind** | Luminosity | Snow |
|---|---|---|---|---|---|---|---|
| 1777464781 | 11.11° C | 85% | 1010.7 hPa | 0 mm | - | 99 W/m² | - |
| 1777464477 | 11.11° C | 85% | 1010.5 hPa | 0 mm | - | 76 W/m² | - |
| 1777464173 | 11.11° C | 86% | 1010.5 hPa | 0 mm | - | 54 W/m² | - |
| 1777463872 | 11.11° C | 86% | 1010.5 hPa | 0 mm | - | 65 W/m² | - |
| 1777463568 | 11.11° C | 88% | 1010.4 hPa | 0 mm | - | 86 W/m² | - |
| 1777463263 | 11.11° C | 87% | 1010.2 hPa | 0 mm | - | 55 W/m² | - |
| 1777462960 | 11.11° C | 86% | 1010.4 hPa | 0 mm | - | 39 W/m² | - |
| 1777462656 | 11.11° C | 86% | 1010.6 hPa | 0 mm | - | 31 W/m² | - |
| 1777462351 | 11.11° C | 86% | 1010.6 hPa | 0 mm | - | 23 W/m² | - |
| 1777462047 | 11.11° C | 86% | 1010.6 hPa | 0 mm | - | 12 W/m² | - |
| 1777461745 | 11.11° C | 86% | 1010.8 hPa | 0 mm | - | 6 W/m² | - |
| 1777461439 | 11.11° C | 85% | 1010.7 hPa | 0 mm | - | 8 W/m² | - |
| 1777461136 | 11.11° C | 85% | 1011.2 hPa | 0 mm | - | 11 W/m² | - |
| 1777460826 | 11.11° C | 86% | 1011.4 hPa | 0 mm | - | 5 W/m² | - |
| 1777460521 | 11.67° C | 83% | 1011.4 hPa | 0 mm | - | 6 W/m² | - |
| 1777460218 | 11.67° C | 83% | 1011.4 hPa | 0 mm | - | 3 W/m² | - |
| 1777459914 | 11.67° C | 84% | 1011.3 hPa | 0 mm | - | 2 W/m² | - |
| 1777459612 | 11.11° C | 84% | 1011.5 hPa | 0 mm | - | 1 W/m² | - |
| 1777459309 | 11.67° C | 83% | 1011.7 hPa | 0 mm | - | 0 W/m² | - |
| 1777459007 | 11.67° C | 80% | 1011.3 hPa | 0 mm | - | 0 W/m² | - |
| 1777458703 | 11.67° C | 83% | 1010.8 hPa | 0 mm | - | 0 W/m² | - |
| 1777458400 | 11.67° C | 84% | 1010.8 hPa | 0 mm | - | 0 W/m² | - |
| 1777458096 | 11.67° C | 83% | 1010.6 hPa | 0 mm | - | 0 W/m² | - |
| 1777457792 | 11.67° C | 82% | 1010.6 hPa | 0 mm | - | 0 W/m² | - |
| 1777457491 | 11.67° C | 85% | 1011 hPa | 0 mm | - | 0 W/m² | - |
* Rain latest hour (hover to see other rain measurements)
** Current wind speed in m/s (hover to see current wind gust speed)